Weather History for Grand Forks, ND

Change the Weather History Date:

Friday, April 19, 2013

  Actual Average Record
Temperature  
Mean Temperature 29 °F 44 °F  
Max Temperature 34 °F 57 °F 85 °F (1952)
Min Temperature 24 °F 32 °F 19 °F (1988)
Degree Days  
Heating Degree Days 36 21  
Month to date heating degree days 704 493  
Since 1 July heating degree days 9271 8878  
Cooling Degree Days 0 0  
Month to date cooling degree days 0 0  
Year to date cooling degree days 0 0  
Moisture  
Dew Point 21 °F    
Average Humidity 70    
Maximum Humidity 81    
Minimum Humidity 58    
Precipitation  
Precipitation 0.00 in 0.03 in 0.41 in (1979)
Month to date precipitation 0.70 0.55  
Year to date precipitation 2.47 2.58  
Snow  
Snow 0.00 in 0.10 in 3.10 in (1970)
Month to date snowfall 6.5 2.0  
Since 1 July snowfall 50.0 46.4  
Snow Depth 2.00 in    
Sea Level Pressure  
Sea Level Pressure 29.96 in    
Wind  
Wind Speed 18 mph (NNW)    
Max Wind Speed 31 mph    
Max Gust Speed 37 mph    
Visibility 10 miles    
Events      
T = Trace of Precipitation, MM = Missing Value Source: NWS Daily Summary

Daily Weather History Graph

Daily Weather History Graph

Search for Another Location

Airport:

Trip Planner

Search our weather history database for the weather conditions in past years. The results will help you decide how hot, cold, wet, or windy it might be!

Date:

Astronomy

Apr. 19, 2013 Rise Set
Actual Time 6:31 AM CDT 8:25 PM CDT
Civil Twilight 5:58 AM CDT 8:58 PM CDT
Nautical Twilight 5:17 AM CDT 9:39 PM CDT
Astronomical Twilight 4:32 AM CDT 10:24 PM CDT
Moon 1:44 PM CDT (4/19) 3:15 AM CDT (4/19)
Length of Visible Light 15h 00m
Length of Day
13h 53m
First Quarter, 62% of the Moon is Illuminated
Apr 19
First Quarter
Apr 25
Full
May 2
Last Quarter
May 9
New
May 17
First Quarter

Hourly Weather History & Observations

Time (CDT) Temp. Windchill Dew Point Humidity Pressure Visibility Wind Dir Wind Speed Gust Speed Precip Events Conditions
12:53 AM 30.0 °F 19.1 °F 21.9 °F 72% 29.87 in 10.0 mi NNW 15.0 mph - N/A   Clear
1:53 AM 30.0 °F 18.7 °F 21.9 °F 72% 29.86 in 10.0 mi NNW 16.1 mph - N/A   Clear
2:53 AM 28.0 °F 17.0 °F 21.9 °F 78% 29.86 in 10.0 mi North 13.8 mph - N/A   Clear
3:53 AM 28.0 °F 16.1 °F 21.0 °F 75% 29.86 in 10.0 mi NNW 16.1 mph - N/A   Clear
4:53 AM 27.0 °F 15.2 °F 21.0 °F 78% 29.86 in 10.0 mi North 15.0 mph - N/A   Clear
5:53 AM 26.1 °F 14.5 °F 19.9 °F 78% 29.88 in 10.0 mi NNW 13.8 mph - N/A   Partly Cloudy
6:53 AM 25.0 °F 13.1 °F 19.9 °F 81% 29.89 in 10.0 mi NNW 13.8 mph - N/A   Partly Cloudy
7:53 AM 27.0 °F 13.9 °F 19.0 °F 72% 29.91 in 10.0 mi NNW 18.4 mph - N/A   Partly Cloudy
8:53 AM 28.0 °F 14.6 °F 19.9 °F 72% 29.91 in 10.0 mi North 20.7 mph 27.6 mph N/A   Scattered Clouds
9:53 AM 30.0 °F 16.9 °F 18.0 °F 61% 29.92 in 10.0 mi North 21.9 mph - N/A   Scattered Clouds
10:53 AM 30.0 °F 17.2 °F 19.9 °F 66% 29.93 in 10.0 mi North 20.7 mph - N/A   Partly Cloudy
11:53 AM 32.0 °F 19.8 °F 21.0 °F 64% 29.95 in 10.0 mi North 20.7 mph - N/A   Partly Cloudy
12:53 PM 32.0 °F 19.8 °F 21.0 °F 64% 29.96 in 10.0 mi North 20.7 mph - N/A   Partly Cloudy
1:53 PM 33.1 °F 20.1 °F 21.9 °F 64% 29.97 in 10.0 mi NNW 25.3 mph 32.2 mph N/A   Partly Cloudy
2:53 PM 33.1 °F 20.1 °F 21.9 °F 64% 29.98 in 10.0 mi North 25.3 mph 34.5 mph N/A   Scattered Clouds
3:53 PM 33.1 °F 20.9 °F 21.9 °F 64% 29.99 in 10.0 mi NNW 21.9 mph 31.1 mph N/A   Scattered Clouds
4:53 PM 33.1 °F 19.3 °F 21.9 °F 64% 30.00 in 10.0 mi North 28.8 mph 34.5 mph N/A   Scattered Clouds
5:53 PM 32.0 °F 19.2 °F 19.9 °F 61% 30.02 in 10.0 mi North 23.0 mph - N/A   Scattered Clouds
6:53 PM 32.0 °F 18.9 °F 21.0 °F 64% 30.04 in 10.0 mi North 24.2 mph - N/A   Partly Cloudy
7:53 PM 30.9 °F 19.4 °F 21.0 °F 67% 30.05 in 10.0 mi NNW 17.3 mph - N/A   Partly Cloudy
8:53 PM 28.9 °F 18.6 °F 21.0 °F 72% 30.07 in 10.0 mi NNW 12.7 mph - N/A   Clear
9:53 PM 28.0 °F 18.6 °F 21.0 °F 75% 30.08 in 10.0 mi NNW 10.4 mph - N/A   Clear
10:53 PM 26.1 °F 17.6 °F 19.9 °F 78% 30.09 in 10.0 mi NW 8.1 mph - N/A   Clear
11:53 PM 25.0 °F 16.3 °F 19.0 °F 78% 30.09 in 10.0 mi NW 8.1 mph - N/A   Clear